Location: *
(42.5628°N, 2.3633°E)
Time: 00:30:39
(UTC+00:00)

Cosmos 2341 Rocket - Pass Details

Date: 30 March 2020
Orbit: 968 x 1005 km, 82.9° (Epoch: 05 June)

Event Time Altitude Azimuth Distance (km) Brightness Sun altitude
Rises 21:14:52 0° 352° (N) 3,723 7.7 -30.9°
Reaches altitude 10° 21:17:23 10° 353° (N) 2,774 6.9 -31.2°
Enters shadow 21:22:57 69° 3° (N) 1,067 4.1 -32.0°
